Wind_Speed
39 40 40 40 40 39 38 39 40 41 42 43 43 44 44 45 46 46 48 48 47 48 50 51 52 53 53 52 52 52 51 51 51 50 50 51 52 51 50 49 49 48 47 48 48 47 46 44 44 44 44 45 45 45 45 44 44 42 41 42 44 45 46 47 47 46 44 43 42 42 42 41 42 42 43 42 41 40 40 40 41 42 41 41 42 40 39
39 40 41 41 41 41 41 41 41 42 43 43 43 44 44 44 44 45 46 47 46 46 50 51 52 53 53 52 52 52 51 51 50 49 48 48 49 50 51 50 50 50 50 51 52 51 50 50 49 48 49 50 50 49 49 49 48 48 47 46 46 46 47 47 48 48 48 47 47 46 45 45 45 45 46 46 46 45 44 44 44 44 43 43 44 43 43
41 41 41 42 43 44 44 44 45 45 44 43 43 42 42 43 43 43 45 47 46 45 47 49 50 51 52 52 52 52 52 51 51 50 49 48 47 48 49 50 51 51 52 52 53 53 53 53 53 53 53 53 54 53 53 53 53 53 53 53 52 52 51 52 52 52 52 52 52 52 51 50 49 49 49 49 49 49 49 48 47 46 46 46 48 48 47
43 42 43 44 45 46 47 47 47 45 44 44 43 43 43 43 43 43 44 47 45 43 43 46 49 50 49 50 50 51 52 52 51 51 50 49 48 47 47 49 50 52 53 54 55 55 56 56 56 56 56 56 56 56 56 56 56 56 56 56 57 57 57 57 57 57 56 56 56 55 55 54 53 52 52 52 52 52 52 52 52 51 50 50 51 49 47
45 44 44 45 46 47 48 47 45 44 44 44 45 45 44 43 43 44 46 46 44 42 43 45 46 47 47 48 49 50 50 50 50 50 50 50 49 49 48 47 48 50 52 53 55 56 56 57 57 57 57 57 58 57 57 57 57 58 59 59 59 59 60 60 60 60 60 59 59 58 57 56 55 55 55 55 55 55 55 56 56 56 54 54 54 52 50
45 44 45 45 47 48 46 44 44 44 44 44 44 44 44 43 43 45 46 45 44 44 43 43 43 45 46 47 48 48 48 48 48 49 50 50 50 50 49 49 49 49 50 51 52 53 54 55 56 57 57 57 57 57 58 58 58 58 58 59 60 60 60 60 60 60 60 60 59 59 58 58 57 58 58 58 58 58 58 58 58 58 57 57 56 56 55
44 44 45 47 48 47 45 44 45 45 44 43 43 43 43 44 44 45 45 46 45 45 44 44 45 45 45 46 46 47 48 48 49 50 51 51 52 52 52 52 51 51 50 51 51 52 53 54 54 56 56 57 57 57 58 58 58 59 59 59 59 60 60 60 60 60 60 60 60 59 60 60 60 60 60 60 60 59 59 59 59 58 58 57 57 57 56
44 44 45 47 47 46 45 45 44 43 43 43 43 43 43 43 44 44 45 46 46 46 46 46 45 45 45 45 46 47 48 49 50 51 52 53 53 54 54 54 53 53 52 52 52 52 53 53 54 55 55 56 56 56 57 57 58 59 59 58 59 59 60 60 60 60 60 60 60 60 60 60 60 61 61 60 60 60 60 60 59 58 58 57 57 57 57
43 44 44 45 45 44 44 43 42 42 42 42 42 43 44 44 44 44 44 45 45 46 45 45 45 45 45 45 47 48 48 49 50 51 52 53 54 54 55 54 54 53 53 53 53 53 52 53 53 54 54 55 55 55 55 55 56 56 57 57 57 58 58 58 58 58 59 59 59 60 60 60 60 60 60 60 60 60 61 60 60 60 59 59 59 59 57
42 42 42 42 43 42 41 41 41 41 41 41 42 43 44 44 44 43 44 44 44 44 44 44 44 44 43 44 46 47 47 48 49 50 51 52 52 53 53 53 53 53 53 53 53 53 53 52 53 53 54 54 54 54 54 54 54 54 55 55 56 56 56 57 57 57 58 58 59 59 59 59 59 59 59 58 58 59 59 59 59 59 59 59 60 59 57
41 41 41 41 41 41 40 40 41 40 40 41 41 42 44 44 43 43 43 43 43 43 43 43 43 43 44 44 45 45 46 47 48 49 50 51 51 51 52 52 52 53 53 54 54 54 54 53 53 53 54 53 53 53 54 54 54 54 54 55 56 55 55 56 57 58 58 58 58 58 58 58 58 58 56 55 55 55 55 54 54 55 55 55 56 56 56
41 41 41 41 40 40 40 40 40 40 40 40 40 41 43 43 42 42 42 42 43 43 43 43 43 43 43 44 45 45 46 47 48 49 49 50 51 51 51 51 51 52 52 52 53 53 53 53 53 53 53 54 54 54 54 54 54 55 55 56 56 56 56 56 57 58 58 58 57 57 57 57 57 56 54 54 53 53 52 51 50 51 53 54 54 54 55
41 42 42 42 41 40 40 40 40 40 40 40 40 41 42 42 42 42 42 42 43 42 42 42 43 43 43 44 44 45 45 47 47 48 48 49 49 50 50 50 50 50 50 50 50 51 51 52 52 52 52 52 52 52 52 53 53 55 56 56 56 56 56 56 57 58 58 57 57 56 56 56 55 55 54 54 53 52 51 50 49 50 51 51 51 51 50
40 41 42 42 41 40 40 40 41 41 41 41 42 42 42 42 42 42 43 43 44 44 44 44 44 44 45 45 45 45 45 46 46 46 47 47 47 47 48 48 49 50 49 50 50 50 51 51 51 51 51 51 50 50 50 50 51 52 53 54 54 54 54 54 55 56 57 57 56 56 56 56 55 55 55 54 53 53 52 51 50 50 49 48 47 46 43
38 39 40 40 40 40 41 41 42 42 42 42 42 42 43 43 43 43 44 44 45 45 45 45 46 46 46 46 46 46 46 46 47 48 48 49 49 50 50 51 52 52 51 50 50 50 50 51 51 51 51 51 51 51 50 49 50 51 52 52 52 52 52 53 54 55 56 56 56 55 55 55 55 55 55 55 54 54 53 52 50 48 47 46 44 42 39
36 37 38 39 39 40 41 43 43 43 43 43 43 43 44 44 45 45 46 46 46 46 46 45 46 46 46 47 47 47 47 48 49 50 51 52 52 53 53 53 54 54 53 52 52 52 52 52 53 54 54 54 53 51 51 51 52 52 53 54 54 54 54 54 55 56 56 56 56 56 55 55 55 55 55 55 55 55 54 51 47 45 44 42 39 36 36
35 36 36 37 38 40 42 44 44 44 45 45 45 45 45 46 47 48 48 47 48 48 48 48 47 47 48 48 49 49 49 49 50 52 52 53 54 54 55 55 55 56 55 54 54 54 54 55 56 57 57 57 55 53 54 55 55 55 56 57 57 57 58 58 58 58 58 58 57 57 57 56 56 56 55 54 53 52 49 45 41 39 38 35 34 33 34
37 38 38 38 39 40 42 44 44 45 46 47 47 48 48 48 49 50 49 49 50 51 51 51 51 51 52 51 51 51 51 51 52 53 54 55 56 57 58 59 60 60 59 57 56 55 55 57 58 59 60 59 58 57 58 58 58 58 59 60 60 59 59 59 58 57 56 56 55 55 54 54 53 53 52 50 46 43 41 38 35 34 34 34 33 34 34
40 40 40 40 41 42 43 44 45 46 47 48 49 49 50 50 51 51 51 51 52 53 54 54 54 54 55 55 55 55 55 55 55 55 55 56 57 59 60 61 62 63 62 61 60 59 58 59 60 61 60 60 60 60 59 59 58 58 58 58 57 56 55 53 50 48 47 47 47 47 47 46 45 43 41 37 34 33 33 33 33 36 37 36 35 34 35
41 41 41 42 43 44 45 46 47 48 49 50 50 51 52 52 53 53 53 53 54 54 55 56 56 56 56 57 57 57 58 58 57 57 57 58 58 59 60 60 61 62 62 61 60 60 59 59 60 60 59 58 58 57 55 54 53 53 53 51 50 48 45 42 39 37 37 37 37 37 36 35 34 31 28 26 26 27 29 30 34 39 40 36 35 36 37
42 42 44 45 46 46 47 48 49 51 52 52 52 53 54 54 55 55 56 56 56 56 56 56 57 57 57 57 58 58 58 57 57 57 57 58 58 58 58 58 59 59 59 58 58 57 56 55 54 53 51 50 49 47 45 44 44 44 42 41 40 37 34 32 31 30 29 29 29 28 27 27 26 26 27 27 27 27 28 30 33 37 38 36 36 37 36
44 44 46 47 48 48 47 47 48 50 52 53 54 54 54 55 55 56 56 56 56 56 56 57 57 57 57 56 56 56 55 54 53 54 54 54 54 54 54 54 54 54 54 54 52 51 48 46 43 41 40 38 36 34 33 33 35 35 33 32 30 28 27 27 27 26 26 25 24 24 24 24 24 25 28 29 28 28 30 31 32 35 36 36 36 36 36
45 45 46 47 48 48 46 45 45 46 48 51 53 53 53 53 53 54 55 55 54 53 52 53 53 53 52 50 50 50 49 47 46 47 47 48 48 47 48 48 49 48 47 46 44 41 37 34 32 31 30 28 25 24 26 28 29 28 27 26 24 24 25 25 25 24 23 23 22 22 23 23 23 23 25 27 28 27 27 28 31 34 35 34 33 33 33
43 42 43 44 43 42 40 39 38 38 41 45 48 47 47 48 48 49 50 50 48 47 44 42 42 42 41 39 40 40 38 36 37 38 39 39 40 40 40 42 42 40 38 36 33 29 25 23 23 22 20 19 19 22 24 24 24 25 25 24 22 23 24 23 22 21 21 21 21 21 21 20 20 20 21 22 24 24 25 27 30 31 31 31 30 29 30
38 36 35 34 31 30 29 29 29 31 33 36 37 37 37 38 38 39 39 38 36 35 32 28 27 28 28 27 27 29 29 28 29 30 30 30 31 32 32 32 32 30 28 24 20 16 14 14 14 14 14 15 17 18 19 20 21 22 22 21 21 21 22 22 21 21 21 20 19 18 18 19 19 20 19 20 23 25 26 27 27 27 26 26 27 27 29
30 28 24 20 19 20 21 22 23 25 27 28 27 27 26 27 26 26 24 23 22 21 20 17 17 18 19 19 20 22 22 21 20 20 20 21 22 22 22 21 20 18 15 13 11 10 10 9 8 9 11 12 11 12 13 15 15 15 14 15 18 19 21 21 21 20 20 19 18 18 19 21 22 23 23 24 24 24 23 23 22 22 23 23 24 26 26
20 19 16 13 13 16 19 20 21 22 22 22 22 21 19 17 16 15 14 13 13 12 12 12 12 14 16 16 16 15 14 13 13 15 15 16 16 15 14 11 11 11 10 11 10 8 6 4 5 8 10 8 6 6 8 8 8 10 12 14 17 19 20 21 20 19 19 19 18 20 23 24 25 25 24 23 22 20 19 19 19 19 20 20 21 22 23
15 15 14 13 13 14 16 17 19 20 20 19 18 17 15 13 11 9 9 9 9 10 11 11 11 11 12 12 11 10 10 10 11 12 12 11 11 10 8 7 8 10 11 11 10 9 6 5 8 11 11 7 4 5 12 13 11 14 18 19 19 20 20 20 20 22 22 21 20 22 23 23 23 22 21 20 19 18 18 18 17 16 16 17 18 19 20
14 13 13 14 14 14 14 15 16 17 17 17 15 13 11 11 9 8 8 9 9 9 9 8 7 7 8 8 8 8 10 10 10 9 8 6 5 4 5 7 9 10 11 11 11 10 10 12 14 14 10 5 1 10 18 19 18 19 21 22 20 19 18 18 20 22 23 23 22 23 23 23 22 21 20 20 20 20 18 16 14 14 15 16 17 17 18
13 13 14 15 15 15 14 14 15 15 15 15 13 11 9 8 9 9 9 8 7 7 6 4 3 3 4 4 6 8 10 10 9 8 5 0 3 5 8 10 10 10 11 12 14 16 19 20 18 14 10 7 8 13 19 23 22 20 20 21 21 19 19 19 19 20 22 23 22 23 23 23 22 22 22 22 21 18 15 13 13 14 14 13 13 14 16
14 14 15 15 15 15 14 13 13 13 12 12 11 10 9 8 8 8 7 5 4 3 3 2 1 1 1 4 8 9 8 7 4 2 1 5 7 9 11 12 13 15 17 18 18 22 23 21 16 13 12 13 14 16 19 22 23 21 21 22 22 22 22 22 22 22 23 23 23 23 22 22 22 22 21 19 16 14 13 13 13 12 11 11 12 14 17
14 14 14 14 13 11 11 11 10 10 10 9 7 7 7 6 5 4 3 1 2 3 3 2 3 3 4 9 11 9 7 4 3 6 8 10 11 12 14 16 18 21 22 21 21 22 21 18 15 13 12 12 12 14 17 20 21 22 23 24 24 25 25 25 25 24 23 23 22 22 21 20 19 18 16 14 14 13 13 12 10 8 9 11 13 15 17
12 12 13 12 10 7 8 8 8 7 9 9 6 3 3 3 1 1 1 2 3 3 3 4 5 6 8 11 13 13 13 10 7 9 13 14 16 17 19 20 21 22 23 22 20 19 17 15 13 11 9 8 9 10 13 16 18 20 22 23 24 24 24 24 24 23 22 22 22 20 19 17 15 14 14 14 13 12 10 8 7 8 11 13 14 15 15
11 10 9 7 5 6 6 7 6 6 8 9 5 3 3 3 2 3 4 5 4 3 4 5 7 8 11 14 15 15 16 15 11 12 16 18 20 23 25 25 22 21 22 21 18 16 15 13 11 8 7 7 7 7 8 12 15 17 19 20 21 22 22 21 22 22 22 21 19 17 16 15 14 14 14 13 10 8 6 6 8 9 11 11 12 12 13
10 8 6 3 4 6 6 6 5 6 9 9 8 6 5 5 4 5 6 6 4 4 5 7 9 11 14 15 12 11 14 17 15 14 18 23 26 28 28 26 22 20 20 18 15 13 12 10 8 7 6 6 6 6 7 10 14 16 18 18 19 19 20 20 21 20 19 17 16 15 15 14 14 13 11 8 6 5 6 8 8 9 8 8 9 10 12
8 6 3 3 5 6 5 5 5 6 9 10 8 7 7 7 6 5 5 5 4 4 6 9 12 13 12 11 9 9 13 18 19 18 19 23 28 28 27 25 23 21 19 15 12 11 9 7 6 6 5 6 8 8 9 11 14 15 15 15 15 16 17 17 17 17 16 15 15 14 14 14 13 11 8 6 6 6 7 8 7 6 6 7 9 11 12
7 6 5 4 4 4 3 4 4 5 8 10 8 6 6 6 5 4 5 5 5 5 7 10 12 11 9 8 9 10 11 15 19 21 20 22 25 27 27 24 20 17 15 11 10 9 8 6 5 4 5 5 7 8 8 10 13 13 12 12 12 13 13 13 14 14 14 14 14 14 14 13 11 8 7 7 7 7 7 6 5 4 6 8 10 12 13
7 8 6 5 4 3 3 2 2 4 7 9 9 7 5 5 5 5 5 6 5 5 7 9 9 8 8 9 10 9 9 12 16 19 20 20 21 23 24 21 15 11 10 8 7 7 6 4 2 3 5 5 5 5 5 6 8 9 10 10 11 12 12 13 13 13 14 14 14 14 13 11 9 8 8 8 7 6 6 4 3 5 6 8 10 12 14
8 6 5 5 4 3 3 3 2 3 5 7 7 7 6 6 5 5 5 6 5 5 6 7 7 7 8 9 9 9 9 10 11 14 17 18 16 15 17 16 11 9 9 8 6 6 5 3 2 2 3 4 5 5 5 5 5 6 7 9 11 12 12 13 13 13 13 13 13 13 12 10 9 9 9 7 6 5 4 3 4 5 6 8 10 12 14
6 4 4 4 2 2 3 4 4 4 5 6 6 7 6 5 5 6 6 6 5 5 5 6 6 6 7 8 9 10 9 8 8 9 12 14 13 12 13 13 10 8 8 7 4 3 2 1 2 3 3 4 4 5 4 3 2 3 5 7 9 10 11 12 12 12 12 12 12 12 11 11 10 10 8 7 6 5 4 4 4 5 6 8 10 12 14
5 3 4 3 2 4 5 5 5 5 6 6 6 5 5 4 4 4 4 4 4 4 4 5 5 5 5 6 7 7 8 7 6 5 6 8 9 10 11 11 10 9 8 7 4 2 4 6 7 7 6 5 3 2 1 1 1 0 3 5 7 9 10 10 10 11 11 11 11 11 11 11 11 10 9 8 6 6 5 5 5 5 7 8 10 12 14
6 5 4 2 1 3 6 6 6 6 6 6 5 5 4 4 4 4 4 3 3 4 4 4 5 5 5 5 5 5 4 5 5 4 4 5 6 7 7 8 9 10 11 10 8 6 6 7 9 10 10 9 7 5 4 4 3 3 2 3 5 8 9 10 10 10 11 11 12 13 13 12 12 11 10 8 8 7 7 6 6 7 7 9 10 12 14
6 6 4 2 1 3 6 6 5 5 5 5 5 6 5 5 5 5 4 4 5 5 5 5 5 6 6 5 5 4 3 2 3 4 5 6 7 8 8 8 9 11 11 12 12 12 12 11 11 11 11 12 12 11 10 9 8 7 6 5 6 7 9 10 11 11 12 13 14 14 14 14 13 12 11 10 9 9 8 8 8 8 8 9 11 12 13
6 6 6 4 3 5 7 7 7 6 5 5 7 8 7 7 7 6 5 6 6 5 5 6 6 7 7 7 6 5 4 3 3 3 4 5 7 9 10 11 12 13 14 15 15 15 15 15 14 14 13 12 12 12 13 13 13 13 12 10 9 9 10 12 13 13 14 15 16 16 16 15 14 13 12 11 11 11 10 10 10 9 9 10 11 12 13
4 5 5 5 5 7 7 7 5 4 3 4 6 7 8 8 8 7 6 6 5 5 4 5 5 6 6 7 7 7 6 6 6 6 6 6 6 8 10 12 13 15 16 16 16 16 16 16 16 16 16 14 12 11 11 12 14 15 16 16 14 13 13 13 14 15 16 16 17 17 17 16 15 14 13 12 12 12 12 12 12 11 11 10 11 11 12
5 4 4 5 6 7 7 6 5 4 4 4 6 8 9 9 8 8 7 7 6 6 5 5 5 5 5 5 5 5 5 5 6 7 7 7 7 7 8 9 11 13 15 17 18 18 18 17 17 18 17 17 16 14 14 14 15 16 17 18 18 16 16 16 17 17 18 18 19 19 18 17 16 15 14 13 14 14 14 14 14 13 12 11 11 11 12
6 5 4 4 4 5 6 6 5 4 4 4 5 6 7 7 6 6 6 5 5 5 5 5 5 5 4 4 3 2 1 1 2 3 4 5 5 5 5 5 6 8 10 13 16 18 19 20 20 20 20 19 19 18 18 17 17 17 18 18 18 18 18 19 19 20 20 20 20 20 20 18 17 16 15 15 16 16 16 17 16 15 13 12 12 12 12
8 7 6 5 4 4 4 4 4 3 2 2 1 2 2 2 2 2 2 2 2 2 3 3 3 4 4 4 4 3 3 3 4 4 4 4 5 5 5 5 5 5 6 8 10 13 16 18 20 20 21 20 20 20 20 19 19 19 19 19 19 19 19 20 21 21 22 22 22 22 21 20 18 17 17 17 17 18 18 18 18 17 15 14 13 12 12
9 9 8 7 6 6 5 4 3 3 2 2 3 3 3 3 3 3 3 3 3 3 3 4 4 5 6 6 7 8 8 8 9 9 9 9 9 9 9 10 9 9 9 8 9 10 12 15 17 19 20 21 21 21 21 21 20 20 20 21 21 20 21 21 21 22 22 23 23 23 22 21 20 19 18 18 18 19 19 19 19 18 17 16 14 13 12
10 10 10 9 9 8 7 6 5 5 5 5 6 6 6 6 6 6 6 6 7 7 7 8 9 9 10 11 12 13 14 14 15 15 15 15 15 15 15 15 14 14 14 14 13 13 13 14 15 17 19 20 21 22 23 23 23 22 22 23 23 23 23 23 23 23 23 24 24 24 23 23 21 20 20 19 20 20 21 21 21 20 19 18 16 15 13
13 12 12 12 11 10 9 8 8 7 7 7 7 7 8 8 9 9 10 11 11 11 12 13 13 14 15 16 17 18 19 20 21 22 22 22 22 21 20 19 19 19 19 19 18 18 17 17 17 17 18 19 21 22 23 24 25 25 25 25 25 25 25 25 25 25 25 25 25 25 25 24 23 22 21 21 21 22 22 22 22 22 21 19 18 16 15
16 15 15 15 14 14 13 12 11 11 10 10 10 10 10 10 11 12 12 13 13 14 16 17 18 20 21 22 23 24 25 26 27 28 29 29 29 28 27 25 23 23 23 23 23 23 22 21 21 21 21 21 21 22 23 24 25 25 26 26 27 27 27 27 27 27 27 27 27 26 26 25 25 24 23 23 23 23 23 23 23 23 22 21 20 18 17
Wind_Direction
268 268 268 268 268 267 266 265 265 265 265 266 266 266 266 266 267 270 270 270 271 270 269 268 268 268 268 268 269 269 269 269 270 269 268 267 267 266 266 265 263 261 258 258 259 260 259 259 259 257 256 256 257 257 256 256 256 257 258 259 259 257 256 255 255 255 256 257 258 261 263 265 267 269 270 271 272 272 272 274 276 277 277 278 279 278 277
267 267 267 268 268 268 268 267 266 265 264 264 265 266 267 269 270 272 272 272 272 271 270 270 271 272 272 272 272 271 271 271 270 269 268 266 265 263 262 262 261 259 258 258 259 259 260 260 260 259 258 256 256 256 256 256 256 256 256 257 258 259 258 258 258 258 259 260 262 264 265 266 267 268 268 269 270 271 272 273 274 276 278 278 277 277 277
267 267 267 268 269 269 269 269 267 267 267 267 268 268 268 268 268 267 267 267 267 268 269 270 269 270 270 271 272 272 272 272 271 270 269 268 266 263 262 261 260 258 258 258 259 259 259 260 259 259 259 258 257 257 257 256 256 256 256 257 258 260 261 261 260 261 262 263 266 268 269 270 271 270 269 269 269 270 271 272 273 274 275 276 276 276 276
269 269 269 269 269 269 268 268 268 270 272 272 271 269 267 266 266 265 264 264 264 266 266 266 266 266 267 268 269 269 269 270 270 270 270 270 269 267 264 262 261 260 259 259 259 259 260 260 260 260 259 259 259 258 258 257 257 257 258 258 259 260 261 262 263 263 263 264 266 268 270 272 272 272 272 271 270 271 271 271 272 272 273 274 275 276 276
272 271 271 270 270 268 268 270 271 272 272 271 269 268 267 266 266 265 264 264 264 264 263 264 265 266 267 267 266 266 267 267 268 268 269 269 269 268 266 265 263 262 261 261 260 260 260 260 260 260 260 260 260 260 260 259 259 259 259 259 260 261 262 263 263 264 264 265 265 266 268 269 270 271 272 272 271 271 271 271 271 272 274 274 275 275 276
272 272 271 270 269 269 271 272 273 271 270 270 270 270 269 268 267 266 266 266 265 264 264 264 264 264 265 266 267 267 267 266 265 266 266 266 266 266 266 265 265 264 264 263 263 262 262 262 261 261 261 261 261 261 261 262 262 261 261 261 262 262 262 262 262 262 263 263 264 266 267 268 269 270 271 271 271 271 271 271 271 272 273 274 274 274 274
270 270 270 269 269 271 272 271 270 270 270 271 271 270 270 270 269 269 268 267 266 266 265 264 264 264 264 265 265 265 264 264 264 264 264 265 265 265 265 265 265 265 265 264 264 264 264 263 263 262 262 262 261 261 262 262 263 263 263 263 263 263 263 262 262 262 262 262 263 264 266 267 268 270 270 270 271 271 271 271 271 271 272 272 273 272 272
269 269 269 269 271 272 271 271 271 271 271 271 271 270 270 270 270 269 269 269 269 268 267 265 264 264 264 264 263 263 262 263 263 263 264 264 264 265 265 265 265 265 264 264 264 264 263 263 263 263 263 262 262 262 262 263 263 264 265 265 265 265 265 265 265 264 264 264 264 264 265 266 267 268 268 269 269 269 270 270 271 271 271 271 271 270 270
270 269 268 269 270 270 270 271 272 272 272 272 272 272 272 271 271 270 269 269 269 269 268 267 266 265 264 264 264 263 263 263 263 263 263 263 264 264 264 265 265 265 265 265 264 264 263 263 263 262 262 262 262 262 263 263 263 264 264 265 265 265 265 265 266 266 266 266 266 266 266 265 265 266 266 267 268 268 268 269 269 269 269 269 269 269 270
270 269 268 268 268 268 268 269 270 270 272 272 272 273 273 273 272 271 270 269 268 267 267 267 266 265 264 263 262 263 263 264 264 264 264 264 264 264 265 265 266 266 266 265 265 264 264 264 264 264 263 263 263 263 264 264 264 264 264 264 263 263 264 264 264 265 265 265 266 266 266 266 266 266 266 266 267 267 267 267 268 268 269 269 268 269 270
271 270 269 268 268 267 267 267 268 269 270 271 272 272 272 272 272 271 270 269 268 266 265 265 264 263 262 261 261 261 262 261 261 262 262 263 263 264 265 265 265 265 266 265 265 265 265 265 266 266 265 265 265 264 264 264 265 265 265 264 264 264 264 264 264 264 265 265 265 265 266 266 266 266 266 266 266 266 265 265 266 267 267 268 269 270 271
273 272 271 270 269 269 269 269 270 271 271 271 271 271 270 271 271 271 271 271 270 269 268 266 264 263 261 261 260 260 260 260 261 261 261 262 262 263 263 264 265 265 266 266 266 267 267 267 267 266 266 266 265 265 264 264 265 265 264 264 265 265 265 265 265 265 265 265 266 266 266 266 266 266 267 267 266 266 266 265 265 264 264 265 268 270 271
273 273 273 272 272 272 272 273 273 273 272 272 271 270 271 271 271 271 271 271 270 269 268 267 266 265 264 263 261 261 260 260 261 261 262 262 262 262 263 264 264 265 265 266 267 267 267 267 266 266 266 266 265 265 264 264 264 264 264 264 264 264 264 264 265 265 265 265 265 265 264 264 265 265 265 266 266 267 267 266 265 264 265 266 267 269 271
271 272 273 274 274 275 275 275 275 274 273 272 271 271 272 271 270 270 270 269 269 269 268 267 267 266 266 265 264 263 262 261 260 260 261 262 263 263 263 263 264 265 266 267 267 268 267 267 266 266 265 265 265 265 264 264 264 263 263 263 263 263 263 263 263 263 263 263 263 262 263 263 263 263 263 263 264 265 265 266 266 266 267 268 268 269 269
269 271 273 274 276 276 276 275 275 274 273 273 272 272 273 272 272 271 270 269 269 268 268 268 268 268 267 266 265 264 263 262 261 260 260 261 262 263 264 265 266 267 268 268 268 269 269 268 267 266 266 266 266 266 267 267 266 266 265 265 264 263 263 263 263 262 262 261 261 261 261 261 261 262 262 261 262 263 264 265 266 266 267 268 268 266 264
268 269 271 272 274 274 274 274 274 274 274 274 274 273 273 274 274 273 272 271 271 270 269 269 268 268 268 268 267 266 265 264 264 264 263 263 264 264 265 266 266 267 268 269 270 270 270 269 268 268 268 268 268 268 268 269 269 269 269 268 267 266 265 265 264 263 263 262 261 260 260 260 260 261 261 260 260 261 263 264 265 266 267 265 261 259 260
270 269 268 269 269 270 271 272 273 274 275 275 275 274 274 274 273 273 273 273 274 273 272 271 270 269 268 267 267 267 267 267 268 268 268 269 269 269 270 270 270 270 270 269 269 268 268 268 269 269 269 270 270 270 270 270 270 271 271 271 270 269 268 268 267 266 265 263 262 261 260 259 259 259 260 260 260 260 262 262 261 261 259 255 252 254 260
273 272 270 270 270 270 270 271 272 273 273 273 273 273 273 272 272 272 272 273 273 272 272 272 271 271 270 269 269 268 267 266 266 266 267 268 268 269 270 271 272 272 273 272 271 270 270 270 270 270 270 271 272 272 272 272 272 272 271 271 270 269 269 268 267 266 264 263 262 260 259 258 257 257 258 259 259 259 258 256 255 255 251 246 248 256 262
276 276 276 276 275 274 274 273 273 273 272 272 271 271 271 271 271 271 271 271 270 270 270 270 271 271 271 272 271 271 270 269 268 267 267 267 267 267 268 269 270 271 273 274 274 274 274 273 273 272 272 273 273 273 273 272 272 271 269 268 267 267 266 265 264 264 263 262 260 259 257 255 253 253 254 254 253 249 246 245 248 250 247 245 250 259 265
278 279 280 279 278 277 277 276 275 274 273 273 273 272 272 272 271 271 271 270 270 269 269 270 270 270 270 271 271 271 271 271 271 271 271 270 270 270 270 270 271 271 272 273 274 274 275 275 275 275 274 274 273 272 271 269 267 266 264 264 263 262 262 261 261 260 260 259 258 255 252 248 245 245 245 244 241 237 233 234 240 242 239 243 253 261 264
281 282 282 280 279 278 278 278 277 276 275 274 274 273 273 272 272 272 271 271 270 270 269 269 269 269 269 269 270 270 271 271 272 273 272 272 272 272 272 272 272 273 273 274 274 275 276 276 276 275 274 272 270 268 266 264 262 261 260 260 259 258 257 255 255 256 256 254 250 244 238 234 232 231 229 229 232 235 232 231 234 236 239 246 255 259 260
283 283 282 281 280 279 280 280 279 278 277 276 275 274 274 273 272 272 271 271 271 271 270 270 269 269 270 270 271 271 272 273 273 273 273 273 273 273 273 272 273 273 274 275 275 276 276 275 274 271 269 266 264 262 261 259 258 258 258 257 255 253 251 250 251 252 250 244 236 228 223 225 227 226 223 223 227 233 235 236 238 241 245 250 253 256 259
285 285 284 284 283 283 282 282 281 280 278 277 276 276 275 273 273 272 271 271 270 269 270 270 271 272 272 273 274 274 274 274 274 274 273 273 272 271 271 271 271 272 272 273 274 274 273 270 266 263 260 259 258 257 256 256 256 257 256 255 252 249 247 247 246 244 239 230 222 219 222 225 226 224 220 220 223 229 234 239 242 244 245 248 252 258 263
288 288 287 287 288 287 286 285 283 281 279 279 279 278 276 275 274 272 272 272 271 271 272 273 275 275 275 274 274 274 273 273 271 270 269 269 268 267 266 267 268 269 269 270 270 268 264 259 255 254 254 254 252 251 253 255 256 256 256 254 248 240 236 234 232 230 226 219 215 219 224 224 220 217 216 220 225 229 233 240 244 246 247 251 257 262 265
289 289 289 290 290 289 287 285 284 283 283 284 284 282 280 277 275 274 274 275 275 275 276 276 275 275 275 274 273 273 272 270 269 268 267 266 265 264 263 264 264 264 264 262 257 251 245 242 243 246 248 247 248 252 256 256 253 253 252 246 235 225 218 214 213 216 217 214 214 219 221 217 214 214 214 218 222 226 231 239 245 249 252 256 261 265 268
291 291 292 291 291 292 292 290 289 291 295 296 295 293 289 286 282 280 279 278 276 277 278 274 269 271 276 277 275 275 274 272 269 267 264 262 262 264 264 262 259 255 248 236 226 222 222 225 237 245 240 241 252 260 254 243 236 232 227 216 207 201 199 201 204 206 207 209 212 211 208 207 211 214 216 220 224 228 234 241 247 252 257 262 266 270 273
295 296 295 293 295 301 304 301 298 302 306 306 304 303 302 299 294 288 283 278 275 276 276 274 273 277 281 281 278 276 275 271 265 262 261 260 260 261 260 254 242 229 214 203 199 194 190 206 242 237 229 245 281 259 212 195 189 184 179 175 174 176 184 193 196 196 200 209 211 205 202 205 212 217 222 226 230 233 239 247 253 258 263 267 270 273 276
297 296 298 300 302 307 308 303 301 304 309 311 310 308 306 305 301 291 280 276 276 278 280 282 281 277 275 274 272 271 270 263 256 258 262 261 257 253 246 230 211 198 189 185 177 166 172 208 221 216 223 263 301 175 154 137 135 149 149 148 155 166 176 185 189 192 199 206 203 199 201 209 216 222 226 227 230 239 249 255 259 262 265 268 271 274 277
299 297 303 309 311 312 311 306 303 306 310 313 314 312 307 304 299 289 282 280 281 284 285 279 265 258 262 269 272 275 275 270 269 274 275 264 250 228 193 182 178 173 170 171 167 166 182 194 193 196 215 258 231 163 152 138 134 139 140 144 154 164 169 176 184 189 194 197 195 196 204 213 220 225 230 233 240 250 255 256 255 257 260 265 270 276 282
303 302 309 314 315 315 315 313 311 311 311 312 313 312 306 299 291 287 288 288 284 280 270 250 233 244 262 284 301 304 303 302 301 303 306 334 124 131 141 146 148 151 156 161 163 167 173 177 179 186 191 171 151 159 158 149 144 145 146 150 159 168 174 182 188 190 192 194 196 200 206 213 220 227 233 237 242 245 244 242 245 250 256 264 274 281 287
304 305 310 315 316 317 320 322 319 315 313 313 313 310 306 301 296 295 295 291 276 248 215 185 122 70 354 351 349 343 337 329 311 293 100 107 113 121 126 127 134 146 153 156 160 166 169 170 171 173 166 149 141 146 151 151 152 157 160 162 167 173 180 187 190 191 191 192 196 202 209 216 222 226 229 230 230 229 230 234 240 247 257 271 279 282 284
307 309 313 318 322 325 327 328 326 322 324 328 324 315 312 313 310 311 311 271 212 184 156 102 53 48 29 18 23 40 53 57 122 140 129 124 125 123 124 132 143 152 155 155 158 162 164 164 163 162 158 152 148 147 148 149 152 157 162 166 170 175 181 185 187 188 192 197 204 211 216 218 217 215 214 214 217 221 226 231 238 253 269 276 278 279 282
314 315 318 323 333 339 338 340 343 345 346 348 342 335 359 16 13 356 53 132 150 140 106 61 43 52 51 42 47 63 66 62 88 121 125 129 132 130 132 141 151 156 157 157 158 160 161 161 161 161 164 175 180 174 168 167 167 167 169 173 177 182 186 189 192 197 203 209 211 211 209 205 201 201 203 209 214 218 223 233 252 266 271 273 275 280 288
321 324 326 333 352 5 8 13 18 7 1 7 21 50 52 57 83 92 90 103 111 98 85 66 53 62 66 56 49 53 56 59 79 112 121 126 133 137 140 145 153 159 161 160 161 162 161 159 156 156 164 184 199 202 193 187 187 188 189 190 193 195 197 199 203 206 207 206 202 198 195 194 195 199 203 205 206 210 226 247 259 265 269 274 282 292 301
331 338 344 8 43 45 40 37 32 14 14 28 50 66 62 71 98 103 98 100 95 85 90 82 71 74 73 61 49 52 62 68 80 103 119 127 134 140 146 152 161 168 167 162 157 155 152 149 145 140 140 159 180 194 199 195 192 192 195 197 198 199 201 203 205 202 197 193 190 189 190 193 196 196 193 191 197 218 240 250 255 263 274 289 306 315 316
345 2 25 58 75 74 56 31 24 28 31 36 52 71 80 86 93 98 102 102 96 107 114 94 76 74 75 69 66 76 81 81 85 95 113 130 139 146 154 161 166 168 165 156 145 144 146 145 140 131 129 147 160 166 179 188 187 184 183 184 185 187 192 194 193 189 186 184 185 187 190 192 190 184 177 182 205 227 238 245 254 274 299 319 327 327 323
15 37 51 63 77 84 58 19 24 44 46 44 50 73 92 89 78 87 113 114 104 119 123 98 76 71 80 89 90 90 91 94 95 96 107 129 144 152 160 164 162 161 160 152 142 146 152 151 141 121 109 122 136 141 154 170 173 167 163 165 168 175 180 180 179 181 183 184 185 187 188 185 178 173 179 198 214 226 236 246 266 303 324 329 329 326 324
50 52 55 63 73 79 62 33 28 40 45 46 52 67 91 93 76 81 115 126 122 128 125 105 82 74 84 92 92 91 99 107 104 100 106 122 138 152 162 163 155 152 160 159 150 151 154 146 120 93 81 80 86 95 112 135 146 149 153 160 166 171 174 173 175 179 183 185 187 186 181 176 176 184 194 204 213 224 236 254 287 316 324 327 327 325 326
70 65 65 69 71 70 60 46 28 23 34 43 51 66 89 106 101 96 113 128 138 143 135 114 91 78 82 88 88 89 102 117 118 112 110 113 122 143 160 162 156 164 181 183 173 165 159 140 90 51 40 41 50 62 74 94 123 143 155 164 170 173 174 175 177 182 185 187 187 184 179 180 187 194 200 206 214 225 243 266 292 310 319 323 324 325 328
90 77 77 78 62 18 9 10 8 16 30 39 46 56 75 96 106 106 111 123 137 146 143 129 110 95 95 102 99 90 92 109 128 132 127 123 123 136 149 152 156 177 198 204 202 199 215 271 309 323 332 349 22 48 62 79 111 144 164 172 176 180 182 183 184 187 187 188 187 187 187 191 196 201 206 211 215 225 244 264 281 299 310 315 320 325 330
129 121 106 101 45 7 19 30 32 35 41 44 45 50 61 74 87 92 96 106 122 130 132 133 129 118 114 120 119 106 95 100 116 142 153 153 153 155 155 155 164 178 188 191 198 256 300 297 296 301 307 317 340 10 23 11 23 150 187 190 191 192 193 195 197 197 194 192 193 196 199 202 204 208 213 216 218 228 242 254 269 288 299 308 316 323 328
131 125 120 123 8 35 57 66 62 55 55 57 60 66 73 77 77 75 75 89 109 116 117 127 136 135 133 136 139 132 118 112 119 138 163 179 185 188 186 186 190 193 193 195 201 212 234 256 272 284 291 295 297 292 278 274 276 273 260 240 223 215 209 208 210 211 209 206 205 206 208 211 213 215 218 220 225 232 241 250 263 277 289 302 312 319 325
140 140 138 153 150 103 100 96 86 79 82 88 91 94 94 92 92 94 101 114 124 127 127 133 142 147 151 155 159 161 162 157 151 159 169 178 190 204 215 226 231 229 222 217 217 219 221 227 235 246 259 271 278 278 274 270 267 264 263 259 249 238 229 223 221 223 223 222 220 218 218 219 220 221 223 225 229 236 244 251 259 271 284 295 305 314 322
157 156 150 143 140 132 122 113 106 106 110 113 111 109 108 109 112 113 115 120 124 127 133 142 149 153 158 166 175 182 192 206 219 220 209 197 195 202 211 220 229 236 237 234 231 230 230 231 233 235 239 248 258 264 266 267 266 265 263 261 259 253 244 235 230 229 230 231 231 230 229 229 230 230 231 232 235 240 246 251 257 266 276 286 298 308 317
170 161 147 141 145 143 134 125 125 134 146 145 131 122 116 115 117 117 116 117 119 121 128 137 146 152 159 167 176 185 199 212 223 233 239 237 226 219 219 221 226 233 240 243 244 243 241 240 240 240 239 238 239 243 250 254 256 259 262 262 261 258 251 243 237 234 234 236 238 238 238 239 240 241 242 243 244 246 249 252 256 262 269 278 290 301 310
186 168 139 128 134 140 140 144 152 155 153 146 135 124 116 111 111 114 115 115 113 112 111 112 115 121 128 138 153 170 188 204 214 222 231 237 234 229 228 229 232 236 242 246 250 252 251 249 246 245 243 241 239 237 239 241 244 247 251 254 254 253 250 247 243 239 237 239 242 243 244 246 247 248 251 253 254 255 256 256 256 258 263 271 282 293 304
183 173 151 139 142 147 148 150 148 136 124 119 115 111 108 107 107 107 107 104 98 92 89 85 82 82 83 85 91 109 148 195 214 224 231 237 239 240 239 236 235 237 241 246 250 253 254 254 252 250 248 246 245 243 242 241 242 243 245 246 247 246 244 243 242 241 240 241 243 246 247 249 250 253 256 258 260 260 261 260 258 259 261 265 273 285 297
183 183 178 174 178 182 178 173 167 152 135 120 98 85 86 85 81 75 69 66 62 56 48 41 34 26 22 15 4 352 338 322 310 305 297 284 278 277 278 277 273 264 253 247 247 250 252 255 256 255 253 251 248 247 245 244 244 245 245 245 243 242 241 241 239 238 239 240 244 246 248 251 253 256 259 261 262 263 262 261 260 260 259 261 267 277 289
190 193 197 197 199 204 210 217 227 238 260 286 300 308 317 324 331 335 337 339 344 344 342 340 336 333 330 325 322 318 314 308 303 300 297 292 290 289 288 287 286 284 279 271 261 253 250 251 253 255 255 253 251 248 246 245 245 245 246 246 245 243 244 244 243 241 242 244 246 249 251 254 257 259 261 263 265 266 264 262 261 260 259 260 263 270 280
201 201 205 209 211 213 215 223 237 251 265 280 292 301 307 312 315 316 317 317 319 320 321 320 319 317 316 315 315 314 312 309 305 301 296 291 288 286 284 282 281 280 278 276 273 268 261 254 251 251 252 253 253 251 250 249 247 245 245 245 246 246 247 248 248 247 247 248 249 252 254 256 258 259 261 264 266 267 266 264 262 259 258 258 260 265 272
216 215 215 217 219 222 223 228 237 246 254 262 273 282 289 295 299 301 303 305 309 313 315 315 315 314 314 314 314 315 315 315 312 309 304 298 291 286 281 279 277 276 275 274 273 272 269 265 260 256 254 253 253 254 254 254 253 251 248 246 246 246 247 248 248 249 249 250 251 252 254 255 256 258 261 264 266 267 267 264 261 259 257 257 258 261 266
227 227 225 223 223 226 229 232 236 241 247 253 259 265 272 279 285 290 294 298 302 307 309 310 310 310 310 310 311 312 314 315 314 313 310 305 299 292 285 279 276 275 274 273 272 271 270 268 266 263 260 258 256 256 255 255 256 255 253 250 248 247 247 247 247 248 249 250 251 252 253 254 255 257 260 264 267 268 267 265 262 258 256 256 257 260 263
Height
5642 5642 5642 5642 5643 5643 5644 5645 5644 5645 5645 5644 5645 5645 5646 5646 5646 5645 5645 5647 5648 5648 5648 5648 5647 5647 5648 5650 5651 5652 5652 5652 5652 5653 5653 5654 5654 5655 5656 5656 5657 5659 5660 5660 5661 5662 5663 5664 5665 5666 5667 5668 5668 5669 5670 5671 5672 5673 5673 5674 5674 5674 5675 5676 5676 5677 5678 5678 5679 5680 5681 5682 5682 5682 5683 5684 5684 5685 5685 5685 5684 5684 5685 5686 5686 5687 5689
5637 5637 5637 5637 5637 5637 5638 5638 5639 5638 5638 5639 5639 5640 5640 5641 5641 5641 5640 5640 5642 5643 5642 5641 5641 5641 5641 5642 5643 5643 5644 5645 5645 5645 5646 5646 5647 5648 5649 5650 5651 5652 5652 5653 5654 5655 5656 5657 5658 5659 5660 5660 5661 5662 5663 5664 5665 5666 5667 5667 5667 5668 5668 5669 5670 5671 5672 5672 5673 5673 5675 5676 5676 5677 5677 5678 5679 5679 5680 5680 5679 5679 5680 5681 5680 5681 5682
5631 5632 5632 5632 5631 5631 5631 5631 5631 5631 5632 5633 5634 5635 5635 5635 5634 5635 5634 5633 5634 5636 5636 5635 5635 5634 5634 5634 5634 5635 5636 5636 5636 5637 5638 5639 5640 5641 5642 5643 5644 5644 5645 5646 5647 5647 5648 5649 5650 5651 5652 5653 5654 5655 5656 5657 5658 5659 5660 5660 5660 5661 5661 5662 5663 5664 5665 5665 5666 5666 5667 5668 5669 5670 5671 5672 5673 5673 5674 5674 5674 5674 5675 5675 5674 5674 5676
5625 5626 5626 5626 5625 5624 5624 5623 5624 5626 5627 5627 5628 5628 5628 5627 5627 5628 5627 5626 5629 5630 5629 5627 5627 5627 5628 5628 5628 5628 5628 5628 5629 5630 5630 5631 5632 5633 5635 5636 5636 5637 5638 5639 5639 5640 5641 5642 5643 5644 5644 5645 5646 5647 5648 5650 5650 5651 5652 5653 5653 5654 5654 5655 5656 5657 5658 5658 5659 5660 5660 5661 5661 5662 5664 5665 5666 5667 5667 5667 5667 5668 5669 5669 5668 5668 5669
5618 5620 5619 5619 5618 5617 5616 5617 5619 5620 5620 5619 5619 5620 5620 5620 5621 5620 5619 5620 5623 5623 5621 5620 5621 5621 5621 5621 5621 5621 5621 5622 5622 5623 5624 5624 5625 5626 5627 5628 5629 5630 5631 5631 5632 5633 5633 5634 5635 5636 5636 5637 5638 5640 5641 5642 5643 5644 5644 5645 5646 5646 5647 5648 5648 5649 5650 5651 5652 5653 5653 5654 5655 5656 5657 5658 5659 5659 5660 5660 5660 5661 5662 5662 5662 5662 5663
5611 5612 5612 5611 5610 5610 5611 5613 5613 5612 5612 5612 5612 5612 5612 5613 5613 5613 5613 5614 5616 5615 5615 5615 5615 5615 5615 5614 5614 5614 5615 5615 5616 5616 5617 5617 5618 5619 5620 5621 5622 5623 5623 5624 5625 5625 5626 5627 5627 5628 5628 5629 5631 5632 5633 5634 5635 5636 5636 5637 5638 5638 5639 5640 5640 5641 5642 5643 5644 5645 5646 5647 5648 5649 5650 5651 5652 5652 5652 5652 5653 5654 5655 5655 5655 5655 5656
5605 5606 5605 5603 5603 5604 5606 5606 5605 5605 5605 5606 5606 5605 5605 5605 5606 5606 5606 5607 5608 5608 5608 5608 5609 5609 5609 5609 5607 5607 5607 5608 5608 5609 5610 5610 5611 5612 5612 5614 5615 5615 5616 5617 5618 5618 5618 5619 5619 5620 5620 5621 5623 5624 5625 5626 5627 5627 5628 5629 5629 5629 5630 5631 5632 5633 5634 5636 5637 5638 5638 5639 5640 5642 5643 5644 5644 5644 5645 5645 5646 5647 5648 5648 5648 5648 5648
5599 5599 5598 5597 5597 5599 5599 5598 5599 5599 5599 5599 5599 5598 5598 5599 5599 5599 5599 5599 5600 5600 5601 5601 5602 5602 5602 5602 5600 5599 5599 5600 5601 5601 5602 5603 5604 5604 5605 5606 5607 5608 5609 5610 5610 5611 5611 5611 5612 5612 5612 5614 5615 5617 5617 5618 5618 5619 5620 5621 5621 5621 5621 5622 5623 5624 5626 5628 5629 5630 5631 5632 5633 5634 5635 5636 5636 5637 5637 5638 5639 5640 5640 5640 5640 5640 5641
5592 5592 5592 5591 5591 5592 5592 5592 5592 5593 5593 5592 5592 5591 5591 5592 5592 5592 5592 5593 5593 5593 5593 5594 5594 5595 5596 5594 5592 5591 5592 5593 5593 5594 5594 5594 5595 5596 5596 5598 5599 5600 5601 5601 5602 5602 5603 5603 5603 5604 5605 5606 5608 5609 5610 5610 5610 5611 5612 5613 5612 5612 5613 5614 5615 5616 5617 5619 5620 5621 5622 5623 5625 5626 5626 5627 5628 5629 5629 5630 5631 5632 5632 5632 5632 5633 5634
5586 5586 5585 5586 5585 5586 5587 5587 5586 5586 5586 5586 5586 5585 5584 5585 5585 5585 5585 5586 5586 5586 5586 5586 5587 5588 5588 5587 5584 5585 5586 5586 5586 5587 5587 5587 5587 5588 5589 5590 5590 5591 5591 5592 5593 5594 5595 5595 5595 5596 5597 5598 5600 5601 5602 5601 5602 5603 5604 5603 5603 5604 5605 5606 5607 5608 5609 5610 5612 5612 5613 5615 5616 5617 5618 5619 5620 5620 5622 5623 5623 5624 5624 5624 5624 5625 5627
5579 5579 5579 5579 5579 5580 5581 5580 5580 5581 5580 5580 5579 5578 5577 5578 5578 5577 5577 5578 5578 5578 5579 5580 5580 5580 5580 5579 5578 5578 5580 5580 5579 5579 5580 5580 5580 5581 5581 5581 5582 5582 5583 5583 5584 5585 5586 5587 5587 5588 5589 5591 5592 5593 5593 5593 5594 5595 5595 5594 5594 5596 5598 5598 5599 5600 5601 5602 5603 5604 5605 5606 5607 5608 5610 5611 5611 5612 5614 5615 5616 5617 5617 5616 5616 5617 5619
5572 5572 5572 5573 5573 5573 5574 5574 5574 5574 5574 5573 5572 5571 5570 5571 5571 5570 5570 5570 5570 5570 5571 5572 5572 5572 5572 5572 5571 5571 5572 5573 5572 5572 5573 5573 5573 5574 5574 5574 5574 5574 5575 5575 5576 5577 5578 5579 5579 5580 5581 5582 5584 5585 5585 5586 5587 5586 5585 5585 5587 5588 5590 5590 5591 5591 5592 5593 5595 5596 5597 5598 5599 5600 5601 5602 5603 5605 5606 5608 5609 5610 5610 5609 5609 5610 5611
5566 5565 5565 5566 5566 5567 5567 5567 5567 5567 5567 5566 5565 5564 5564 5565 5565 5564 5564 5563 5563 5563 5564 5564 5564 5564 5564 5565 5565 5565 5565 5566 5566 5565 5566 5566 5567 5567 5567 5566 5566 5567 5567 5568 5569 5570 5571 5571 5572 5572 5573 5574 5575 5576 5577 5578 5578 5577 5576 5577 5579 5580 5581 5582 5582 5583 5584 5585 5586 5587 5589 5590 5591 5592 5593 5594 5595 5597 5599 5600 5601 5602 5602 5603 5603 5604 5604
5560 5560 5559 5560 5560 5560 5561 5560 5559 5559 5559 5558 5558 5558 5557 5558 5558 5558 5557 5557 5556 5556 5557 5557 5557 5557 5557 5558 5558 5558 5558 5559 5559 5559 5559 5559 5560 5560 5560 5560 5559 5559 5560 5561 5562 5563 5563 5564 5564 5565 5565 5566 5567 5568 5569 5570 5569 5568 5568 5570 5571 5572 5573 5574 5574 5574 5575 5576 5578 5579 5580 5582 5583 5584 5585 5586 5588 5589 5591 5592 5593 5594 5595 5596 5596 5597 5598
5555 5555 5554 5554 5554 5554 5553 5552 5551 5551 5551 5551 5551 5551 5551 5550 5551 5551 5550 5550 5549 5549 5550 5550 5550 5550 5551 5551 5551 5551 5552 5552 5552 5552 5552 5553 5553 5553 5553 5553 5552 5552 5553 5554 5555 5555 5556 5556 5556 5556 5557 5558 5558 5559 5561 5562 5561 5561 5561 5562 5562 5564 5565 5565 5565 5565 5566 5567 5569 5571 5572 5573 5575 5576 5577 5579 5581 5582 5583 5584 5586 5587 5588 5589 5589 5590 5591
5551 5551 5550 5549 5548 5547 5546 5545 5544 5544 5544 5544 5544 5544 5544 5544 5543 5543 5542 5542 5542 5542 5542 5543 5543 5543 5543 5543 5543 5543 5544 5545 5545 5545 5545 5545 5546 5546 5546 5545 5545 5545 5546 5547 5548 5548 5548 5548 5548 5548 5548 5549 5549 5551 5552 5552 5552 5553 5553 5553 5553 5555 5555 5556 5556 5556 5557 5559 5560 5562 5564 5565 5567 5568 5569 5571 5573 5574 5575 5577 5579 5580 5581 5582 5583 5584 5585
5545 5545 5545 5544 5543 5541 5540 5539 5538 5538 5538 5537 5537 5537 5537 5537 5536 5535 5535 5535 5535 5535 5535 5535 5535 5535 5535 5535 5535 5536 5537 5537 5537 5536 5536 5537 5537 5537 5537 5537 5537 5537 5538 5539 5540 5540 5540 5540 5540 5540 5540 5540 5541 5542 5543 5543 5544 5544 5544 5543 5544 5545 5545 5546 5547 5547 5548 5550 5551 5553 5555 5557 5558 5560 5561 5563 5565 5567 5568 5571 5573 5574 5575 5576 5577 5579 5580
5538 5538 5538 5538 5537 5536 5535 5534 5533 5532 5532 5531 5530 5530 5530 5529 5528 5528 5528 5528 5528 5527 5527 5526 5527 5527 5527 5527 5528 5528 5529 5529 5529 5529 5529 5529 5529 5529 5529 5529 5528 5528 5529 5530 5531 5531 5532 5532 5531 5531 5531 5531 5532 5533 5533 5534 5534 5535 5534 5534 5534 5535 5535 5536 5537 5537 5539 5540 5542 5544 5546 5548 5550 5552 5554 5556 5559 5560 5562 5564 5567 5568 5569 5570 5572 5574 5575
5530 5531 5531 5531 5530 5529 5528 5527 5526 5525 5524 5523 5523 5522 5522 5521 5521 5520 5521 5521 5520 5519 5519 5518 5519 5519 5519 5518 5519 5519 5519 5520 5520 5521 5521 5521 5521 5521 5521 5521 5520 5520 5520 5521 5522 5522 5523 5523 5522 5521 5522 5522 5523 5523 5524 5524 5524 5524 5524 5524 5524 5526 5526 5527 5528 5529 5530 5532 5534 5536 5538 5540 5543 5545 5548 5550 5553 5555 5556 5558 5561 5563 5564 5566 5568 5569 5570
5524 5525 5524 5523 5523 5522 5520 5519 5518 5517 5516 5516 5515 5514 5514 5513 5513 5512 5512 5512 5512 5511 5511 5510 5511 5511 5511 5510 5510 5510 5510 5510 5511 5512 5512 5512 5512 5512 5512 5512 5511 5511 5512 5512 5513 5513 5514 5513 5512 5511 5513 5513 5513 5513 5514 5514 5514 5513 5514 5515 5516 5518 5519 5520 5522 5523 5525 5526 5528 5530 5532 5535 5538 5541 5544 5546 5548 5550 5552 5554 5557 5559 5561 5563 5565 5565 5566
5519 5519 5517 5515 5514 5515 5513 5510 5509 5508 5507 5507 5507 5506 5505 5504 5504 5504 5503 5503 5503 5503 5503 5502 5501 5502 5503 5503 5502 5501 5502 5503 5503 5503 5503 5503 5503 5503 5503 5503 5502 5502 5503 5503 5504 5504 5505 5504 5503 5503 5503 5503 5503 5504 5505 5505 5504 5505 5507 5508 5510 5512 5514 5515 5517 5519 5520 5522 5523 5526 5529 5531 5534 5537 5540 5542 5544 5546 5549 5552 5555 5556 5558 5560 5561 5562 5563
5512 5511 5509 5506 5506 5507 5506 5503 5501 5499 5498 5498 5498 5497 5496 5496 5495 5494 5494 5495 5495 5494 5494 5493 5492 5493 5495 5495 5494 5493 5494 5495 5494 5494 5494 5494 5494 5494 5494 5493 5493 5494 5494 5494 5495 5496 5496 5496 5495 5495 5495 5495 5496 5497 5497 5497 5498 5499 5501 5502 5504 5507 5509 5511 5513 5515 5516 5518 5521 5523 5526 5528 5531 5534 5536 5538 5540 5543 5546 5549 5551 5553 5555 5557 5558 5559 5559
5504 5503 5500 5498 5498 5499 5497 5495 5493 5491 5489 5488 5489 5488 5487 5487 5486 5485 5485 5486 5486 5486 5485 5484 5484 5485 5487 5487 5486 5486 5486 5486 5485 5485 5485 5485 5485 5486 5485 5485 5485 5486 5486 5487 5488 5488 5489 5489 5489 5489 5489 5490 5492 5492 5492 5492 5493 5495 5496 5498 5500 5503 5505 5507 5509 5511 5513 5516 5518 5521 5523 5525 5528 5530 5533 5535 5537 5540 5543 5546 5548 5550 5551 5553 5554 5555 5555
5497 5495 5493 5491 5491 5490 5489 5487 5485 5484 5481 5480 5481 5480 5479 5478 5478 5477 5476 5477 5478 5478 5479 5479 5478 5478 5479 5480 5479 5479 5479 5479 5478 5477 5477 5477 5477 5478 5477 5477 5478 5479 5480 5481 5482 5483 5483 5484 5484 5485 5486 5487 5488 5487 5487 5488 5489 5491 5492 5494 5496 5498 5500 5503 5506 5508 5511 5513 5516 5519 5521 5523 5525 5527 5530 5533 5536 5538 5540 5543 5545 5547 5548 5549 5550 5550 5550
5490 5489 5487 5486 5485 5484 5483 5481 5479 5478 5476 5475 5475 5474 5472 5472 5471 5471 5471 5471 5471 5472 5473 5474 5473 5472 5473 5474 5473 5473 5473 5473 5472 5471 5471 5471 5471 5471 5471 5472 5472 5474 5475 5476 5477 5479 5480 5480 5482 5483 5483 5483 5483 5483 5484 5484 5485 5486 5487 5489 5492 5494 5497 5500 5503 5507 5509 5512 5515 5517 5519 5521 5523 5526 5528 5531 5534 5536 5538 5540 5542 5544 5545 5545 5546 5546 5546
5484 5484 5483 5483 5482 5480 5478 5477 5476 5474 5473 5472 5471 5469 5468 5467 5467 5467 5467 5467 5467 5468 5469 5470 5470 5469 5469 5470 5469 5468 5468 5468 5467 5467 5467 5467 5466 5466 5467 5468 5469 5470 5472 5473 5475 5476 5478 5479 5480 5480 5480 5480 5480 5480 5480 5481 5481 5483 5484 5486 5488 5491 5495 5498 5502 5505 5508 5511 5514 5516 5518 5520 5522 5524 5527 5529 5532 5534 5536 5538 5539 5540 5541 5541 5542 5542 5542
5481 5480 5480 5480 5479 5478 5476 5474 5473 5472 5471 5469 5468 5467 5466 5465 5464 5464 5464 5465 5465 5466 5466 5466 5467 5467 5467 5467 5466 5466 5465 5465 5464 5464 5463 5463 5463 5464 5464 5465 5466 5468 5470 5471 5473 5475 5476 5477 5478 5477 5477 5477 5478 5478 5478 5479 5480 5481 5483 5485 5488 5491 5494 5498 5501 5505 5507 5510 5512 5514 5516 5518 5521 5523 5526 5528 5530 5532 5534 5535 5536 5537 5537 5538 5538 5539 5539
5479 5479 5478 5478 5477 5476 5474 5473 5471 5470 5469 5468 5466 5465 5464 5463 5463 5463 5463 5463 5464 5464 5464 5465 5465 5465 5465 5464 5464 5463 5463 5462 5462 5461 5461 5461 5461 5462 5462 5464 5465 5466 5468 5470 5471 5473 5475 5476 5476 5476 5476 5477 5478 5477 5478 5479 5481 5482 5483 5485 5488 5491 5495 5498 5501 5503 5506 5508 5510 5513 5515 5517 5520 5522 5524 5526 5528 5530 5531 5532 5533 5534 5534 5535 5536 5536 5537
5478 5477 5476 5476 5475 5474 5473 5471 5470 5469 5467 5466 5465 5464 5463 5462 5462 5462 5462 5462 5462 5463 5463 5463 5463 5463 5463 5463 5463 5462 5461 5461 5460 5460 5459 5459 5460 5460 5461 5462 5464 5465 5467 5468 5470 5472 5474 5475 5476 5476 5477 5477 5478 5478 5479 5480 5482 5483 5485 5487 5490 5493 5495 5498 5500 5502 5504 5507 5509 5512 5514 5516 5519 5521 5522 5524 5526 5528 5529 5530 5531 5531 5532 5533 5534 5534 5534
5476 5475 5475 5474 5473 5472 5471 5470 5468 5467 5466 5465 5464 5463 5463 5462 5461 5461 5461 5461 5461 5461 5461 5462 5462 5463 5463 5462 5462 5461 5460 5459 5458 5458 5458 5458 5459 5459 5460 5462 5463 5465 5466 5468 5469 5471 5473 5474 5476 5477 5478 5478 5479 5479 5480 5481 5482 5484 5486 5488 5491 5493 5496 5498 5500 5502 5504 5506 5509 5511 5513 5516 5518 5519 5521 5523 5524 5526 5527 5528 5529 5530 5531 5532 5532 5532 5531
5475 5474 5474 5473 5472 5470 5469 5468 5467 5466 5465 5464 5463 5462 5462 5461 5461 5461 5461 5461 5461 5461 5461 5462 5462 5462 5462 5462 5462 5460 5459 5458 5457 5457 5457 5458 5459 5460 5461 5462 5464 5465 5466 5468 5470 5472 5474 5475 5477 5479 5480 5480 5481 5482 5482 5483 5484 5486 5488 5490 5492 5494 5496 5498 5500 5502 5504 5507 5509 5511 5513 5515 5516 5518 5519 5521 5522 5524 5525 5526 5528 5528 5529 5529 5529 5529 5529
5474 5473 5472 5471 5470 5469 5468 5467 5466 5465 5464 5463 5462 5461 5461 5461 5460 5460 5460 5460 5461 5461 5462 5462 5462 5463 5463 5463 5462 5460 5459 5458 5457 5457 5458 5459 5460 5461 5463 5464 5465 5466 5468 5470 5472 5473 5475 5477 5479 5480 5481 5482 5484 5485 5485 5486 5487 5488 5490 5492 5493 5495 5497 5499 5501 5503 5505 5507 5509 5510 5512 5513 5515 5516 5518 5520 5521 5522 5524 5525 5526 5526 5527 5527 5527 5527 5526
5473 5472 5471 5470 5469 5469 5468 5467 5466 5464 5463 5462 5461 5461 5461 5460 5460 5460 5461 5461 5462 5462 5463 5463 5463 5463 5464 5463 5461 5460 5459 5459 5458 5458 5459 5460 5462 5464 5466 5467 5468 5469 5470 5472 5473 5475 5477 5479 5480 5481 5483 5484 5485 5486 5488 5489 5490 5491 5492 5494 5495 5497 5498 5500 5502 5503 5505 5507 5508 5509 5511 5512 5514 5515 5517 5519 5520 5521 5522 5523 5524 5524 5525 5525 5525 5525 5524
5472 5471 5470 5469 5469 5468 5467 5467 5466 5465 5464 5462 5461 5461 5461 5461 5461 5461 5462 5462 5463 5463 5464 5464 5464 5465 5464 5463 5462 5461 5461 5460 5459 5460 5461 5462 5464 5466 5468 5469 5470 5472 5473 5474 5475 5477 5478 5479 5481 5482 5483 5484 5485 5487 5488 5489 5491 5492 5493 5494 5495 5497 5498 5500 5502 5503 5504 5505 5507 5508 5510 5511 5513 5515 5516 5518 5519 5520 5521 5522 5523 5523 5523 5523 5523 5522 5522
5471 5470 5470 5469 5468 5468 5468 5467 5466 5466 5464 5463 5462 5462 5462 5462 5462 5462 5463 5463 5464 5464 5465 5465 5466 5465 5465 5464 5464 5464 5463 5462 5461 5462 5463 5464 5466 5469 5470 5471 5472 5473 5474 5475 5476 5478 5479 5480 5481 5483 5484 5485 5486 5487 5488 5489 5490 5491 5492 5493 5495 5496 5498 5499 5500 5502 5503 5504 5506 5507 5509 5511 5513 5514 5515 5516 5517 5519 5520 5521 5521 5522 5522 5521 5521 5520 5519
5471 5470 5469 5469 5468 5468 5468 5468 5467 5467 5466 5465 5464 5463 5463 5463 5464 5464 5464 5465 5465 5465 5466 5466 5466 5466 5466 5466 5466 5466 5466 5465 5464 5465 5466 5467 5469 5471 5472 5473 5473 5475 5476 5477 5478 5479 5480 5481 5482 5484 5485 5486 5486 5487 5488 5489 5490 5491 5492 5493 5494 5495 5497 5498 5499 5501 5502 5504 5505 5507 5508 5510 5512 5513 5514 5515 5517 5518 5519 5520 5520 5520 5519 5519 5518 5518 5517
5470 5470 5469 5468 5468 5469 5468 5468 5468 5468 5467 5466 5465 5465 5465 5465 5465 5465 5465 5466 5466 5466 5466 5467 5467 5467 5468 5468 5467 5467 5468 5467 5467 5468 5469 5471 5472 5474 5474 5475 5475 5477 5478 5478 5479 5480 5482 5483 5484 5485 5486 5486 5487 5488 5488 5489 5490 5491 5492 5493 5494 5495 5496 5498 5499 5501 5502 5503 5505 5506 5507 5509 5510 5512 5513 5515 5516 5517 5518 5518 5518 5517 5517 5517 5516 5516 5516
5471 5470 5469 5469 5468 5468 5469 5469 5468 5468 5468 5467 5467 5466 5466 5466 5466 5466 5467 5467 5467 5467 5467 5467 5468 5468 5469 5469 5469 5469 5469 5470 5470 5470 5471 5473 5475 5476 5476 5477 5477 5477 5478 5479 5480 5481 5482 5483 5484 5485 5485 5486 5487 5487 5488 5489 5490 5491 5492 5493 5494 5495 5496 5498 5499 5500 5502 5503 5504 5505 5506 5508 5510 5511 5513 5514 5515 5516 5516 5516 5515 5515 5515 5515 5515 5515 5514
5472 5471 5470 5469 5469 5468 5469 5469 5469 5468 5468 5468 5468 5468 5467 5468 5468 5468 5468 5468 5468 5468 5468 5468 5469 5469 5470 5470 5470 5470 5470 5471 5472 5472 5473 5474 5476 5478 5478 5478 5478 5478 5479 5480 5481 5482 5483 5483 5484 5484 5485 5486 5487 5487 5488 5489 5490 5491 5492 5493 5494 5495 5496 5497 5498 5500 5501 5502 5503 5504 5506 5507 5509 5511 5512 5513 5514 5514 5514 5514 5514 5514 5514 5514 5514 5514 5513
5472 5471 5471 5470 5470 5469 5469 5469 5469 5468 5468 5468 5468 5468 5468 5468 5468 5468 5469 5469 5469 5469 5469 5470 5470 5470 5471 5471 5472 5472 5472 5472 5473 5473 5474 5475 5476 5477 5478 5478 5479 5479 5480 5480 5481 5481 5482 5483 5484 5485 5485 5486 5487 5488 5489 5489 5490 5491 5492 5493 5494 5495 5496 5497 5498 5499 5500 5501 5502 5504 5505 5507 5508 5510 5511 5511 5511 5512 5512 5512 5513 5513 5513 5513 5512 5512 5511
5472 5472 5471 5471 5471 5470 5470 5469 5469 5469 5469 5469 5469 5469 5469 5469 5469 5469 5469 5470 5470 5470 5470 5470 5471 5471 5471 5472 5473 5473 5473 5473 5474 5474 5474 5475 5476 5477 5478 5479 5479 5480 5480 5481 5481 5482 5482 5483 5484 5484 5486 5487 5488 5489 5490 5490 5491 5492 5492 5493 5494 5495 5495 5496 5497 5498 5499 5500 5502 5503 5505 5506 5507 5508 5509 5509 5510 5510 5511 5511 5511 5511 5511 5511 5511 5510 5509
5472 5472 5472 5472 5471 5471 5470 5470 5469 5469 5469 5469 5469 5469 5469 5469 5469 5470 5470 5470 5470 5471 5471 5471 5471 5471 5471 5472 5472 5473 5474 5474 5475 5475 5475 5475 5476 5476 5477 5478 5479 5480 5481 5481 5482 5483 5483 5484 5484 5485 5485 5486 5488 5489 5490 5491 5491 5492 5493 5493 5494 5495 5495 5496 5497 5498 5499 5500 5501 5503 5504 5505 5506 5507 5507 5507 5508 5508 5509 5509 5510 5510 5510 5509 5509 5508 5507
5472 5472 5472 5472 5472 5472 5471 5471 5470 5470 5470 5470 5470 5470 5470 5470 5470 5470 5470 5471 5471 5471 5471 5472 5472 5472 5472 5472 5472 5472 5473 5474 5474 5475 5475 5476 5476 5476 5476 5477 5478 5479 5479 5480 5481 5482 5483 5484 5484 5485 5485 5486 5486 5488 5489 5490 5491 5492 5492 5493 5494 5494 5495 5496 5497 5498 5499 5500 5501 5502 5503 5504 5504 5505 5505 5505 5506 5507 5507 5508 5508 5508 5508 5508 5507 5506 5505
5473 5472 5472 5472 5472 5472 5472 5472 5471 5471 5471 5471 5471 5471 5471 5471 5471 5471 5471 5471 5472 5472 5472 5472 5472 5472 5473 5473 5473 5473 5473 5473 5473 5474 5474 5475 5476 5476 5477 5477 5477 5478 5479 5479 5480 5481 5482 5482 5483 5484 5484 5485 5485 5486 5487 5488 5489 5490 5491 5492 5493 5494 5494 5495 5496 5497 5498 5499 5500 5501 5502 5502 5503 5503 5503 5503 5504 5505 5505 5506 5506 5506 5506 5506 5505 5505 5504
5473 5473 5472 5472 5472 5472 5472 5472 5472 5472 5472 5472 5472 5471 5471 5472 5472 5472 5472 5472 5473 5473 5473 5473 5473 5473 5473 5473 5473 5473 5473 5473 5473 5473 5474 5474 5475 5475 5476 5476 5477 5477 5478 5478 5479 5479 5480 5481 5481 5482 5482 5483 5484 5485 5485 5486 5487 5488 5489 5490 5491 5492 5493 5494 5495 5496 5497 5498 5499 5499 5500 5501 5501 5501 5501 5502 5502 5503 5503 5504 5504 5504 5504 5504 5503 5503 5502
5472 5472 5472 5472 5472 5472 5473 5473 5473 5473 5473 5473 5472 5472 5472 5472 5473 5473 5473 5473 5473 5473 5474 5474 5474 5473 5473 5473 5473 5474 5473 5473 5473 5473 5473 5473 5473 5474 5474 5475 5476 5476 5476 5476 5477 5477 5478 5478 5479 5480 5480 5481 5482 5482 5483 5484 5485 5486 5486 5487 5488 5490 5491 5492 5493 5494 5495 5495 5496 5497 5497 5498 5498 5499 5499 5500 5500 5501 5501 5502 5502 5502 5502 5502 5501 5501 5500
5472 5472 5472 5472 5473 5473 5473 5473 5473 5473 5473 5473 5473 5473 5473 5473 5473 5473 5473 5473 5474 5474 5474 5474 5474 5474 5474 5474 5474 5474 5473 5473 5473 5473 5473 5473 5473 5473 5473 5473 5474 5474 5474 5475 5475 5475 5475 5475 5476 5477 5477 5478 5479 5480 5481 5481 5482 5483 5484 5484 5485 5487 5488 5489 5490 5491 5492 5493 5493 5494 5494 5495 5496 5496 5497 5497 5498 5499 5499 5500 5500 5500 5500 5500 5499 5499 5498
5471 5471 5472 5472 5473 5473 5473 5473 5473 5473 5473 5473 5473 5473 5473 5473 5473 5473 5474 5474 5474 5474 5474 5474 5474 5473 5473 5473 5473 5473 5473 5473 5473 5473 5472 5472 5472 5472 5472 5471 5472 5472 5472 5473 5473 5473 5473 5473 5473 5474 5474 5475 5476 5477 5478 5479 5479 5480 5481 5482 5482 5483 5485 5486 5487 5488 5488 5489 5490 5491 5491 5492 5493 5493 5494 5495 5495 5496 5497 5497 5498 5498 5498 5497 5497 5496 5496
5470 5470 5471 5471 5472 5472 5472 5472 5473 5473 5473 5473 5473 5473 5473 5473 5473 5473 5473 5473 5473 5473 5473 5473 5473 5473 5473 5473 5473 5473 5473 5473 5472 5472 5472 5471 5471 5471 5470 5470 5470 5470 5470 5470 5471 5471 5471 5471 5471 5471 5472 5472 5473 5474 5475 5476 5476 5477 5478 5479 5479 5480 5481 5482 5483 5484 5485 5486 5487 5488 5488 5489 5490 5490 5491 5492 5492 5493 5494 5494 5495 5495 5495 5495 5494 5494 5493
5468 5469 5469 5470 5470 5471 5471 5471 5471 5472 5472 5472 5472 5472 5472 5472 5472 5472 5472 5472 5472 5472 5472 5472 5472 5472 5472 5471 5471 5471 5471 5471 5470 5470 5470 5470 5469 5469 5469 5468 5468 5468 5468 5468 5468 5469 5469 5469 5469 5469 5469 5470 5470 5471 5471 5472 5473 5474 5475 5475 5476 5477 5478 5479 5480 5481 5482 5482 5483 5484 5485 5486 5486 5487 5488 5488 5489 5490 5491 5491 5492 5492 5492 5492 5492 5491 5491
5467 5467 5468 5468 5469 5469 5469 5470 5470 5470 5470 5471 5471 5471 5471 5471 5471 5471 5471 5471 5471 5471 5470 5470 5470 5470 5470 5470 5469 5469 5468 5468 5467 5467 5467 5466 5466 5466 5466 5466 5466 5466 5466 5465 5465 5466 5466 5467 5467 5467 5467 5467 5467 5467 5468 5468 5469 5470 5471 5472 5472 5473 5474 5475 5476 5477 5478 5478 5479 5480 5481 5482 5483 5484 5484 5485 5486 5487 5487 5488 5488 5489 5489 5489 5489 5489 5488
5465 5465 5466 5466 5467 5467 5467 5468 5468 5468 5468 5469 5469 5469 5469 5469 5469 5469 5469 5469 5469 5469 5469 5468 5468 5468 5467 5467 5467 5466 5465 5465 5464 5463 5463 5462 5462 5461 5462 5462 5463 5463 5463 5462 5462 5462 5463 5463 5463 5464 5464 5464 5465 5465 5465 5465 5465 5466 5467 5468 5469 5470 5470 5471 5472 5473 5474 5475 5475 5476 5477 5478 5479 5480 5481 5481 5482 5483 5484 5484 5485 5485 5486 5486 5486 5486 5486